Flag for Iran Weather past 2 weeks in Bandar-Abbas, Iran

Now
86 °F

Fog.


Feels Like: 99 °F
Forecast: 84 / 99 °F
Wind: 9 mph from East

Location: Bandarabbass

Current Time: Aug 31, 2014 at 2:58:39 AM

Latest Report: Aug 31, 2014 at 2:30 AM


Visibility: 2 mi

Pressure: 29.56 "Hg

Humidity: 79%

Dew point: 79 °F

Location of Bandar-AbbasLocation

Historic Weather in Bandar-Abbas — Graph

°F

Bandar-Abbas temperature yesterday

Maximum temperature yesterday: 97 °F (at 4:00 PM)
Minimum temperature yesterday: 86 °F (at 3:30 AM)
Average temperature yesterday: 91 °F

Past Weeks' High & Low Weather Summary

 TemperatureHumidityPressure
High104 °F (Aug 16, 5:00 PM)89% (Aug 16, 6:20 AM)29.77 "Hg (Aug 16, 6:20 AM)
Low86 °F (Aug 17, 6:30 AM)28% (Aug 16, 5:30 PM)29.42 "Hg (Aug 16, 3:20 AM)
Average92 °F71%29.60 "Hg
* Reported Aug 16 2:00 AM — Aug 31 2:00 AM, Bandar-Abbas, Weather by CustomWeather, © 2014

Note: Actual official high and low records may vary slightly from our data, if they occured in-between our weather recording intervals... More about our weather records

Advertising

Bandar-Abbas weather history for previous 24 hours

 ConditionsComfort  
Time TempWeatherWind HumidityBarometerVisibility
2:00 AM
Aug 31
86 °FFog.5 mph79%29.56 "Hg2 mi
1:30 AM88 °FFog.5 mph79%29.56 "Hg2 mi
1:00 AM88 °FFog.5 mph79%29.56 "Hg2 mi
12:30 AM88 °FFog.9 mph79%29.56 "Hg2 mi
11:55 PM
Aug 30
88 °FHaze.7 mph79%29.56 "Hg3 mi
11:30 PM88 °FHaze.9 mph79%29.59 "Hg3 mi
10:20 PM90 °FHaze.5 mph75%29.59 "Hg3 mi
10:00 PM91 °FHaze.7 mph75%29.59 "Hg3 mi
9:30 PM91 °FFog.9 mph80%29.56 "Hg3 mi
9:00 PM90 °FFog.9 mph84%29.56 "Hg3 mi
8:20 PM90 °FClear.7 mph79%29.56 "Hg4 mi
8:00 PM90 °FClear.9 mph79%29.56 "Hg4 mi
7:30 PM91 °FClear.12 mph71%29.56 "Hg4 mi
7:00 PM91 °FClear.9 mph71%29.56 "Hg4 mi
6:30 PM91 °FClear.12 mph71%29.53 "Hg4 mi
6:00 PM93 °FClear.12 mph71%29.53 "Hg4 mi
5:30 PM95 °FPassing clouds.14 mph63%29.53 "Hg4 mi
5:00 PM95 °FPassing clouds.9 mph63%29.56 "Hg4 mi
4:30 PM97 °FHaze.7 mph63%29.56 "Hg3 mi
4:00 PM97 °FHaze.9 mph63%29.56 "Hg3 mi
3:30 PM95 °FHaze.9 mph71%29.56 "Hg3 mi
3:00 PM95 °FPassing clouds.9 mph67%29.59 "Hg4 mi
2:30 PM95 °FPassing clouds.12 mph67%29.59 "Hg4 mi
2:00 PM95 °FPassing clouds.12 mph67%29.62 "Hg4 mi
1:30 PM95 °FPassing clouds.9 mph67%29.62 "Hg4 mi
1:00 PM93 °FPassing clouds.7 mph71%29.65 "Hg4 mi
12:30 PM95 °FPassing clouds.14 mph63%29.65 "Hg4 mi
12:00 PM95 °FPassing clouds.9 mph63%29.65 "Hg4 mi
11:30 AM95 °FPassing clouds.7 mph63%29.65 "Hg4 mi
11:00 AM95 °FPassing clouds.9 mph63%29.65 "Hg4 mi
10:30 AM93 °FPassing clouds.9 mph63%29.65 "Hg4 mi
10:00 AM93 °FPassing clouds.7 mph67%29.65 "Hg4 mi
9:30 AM93 °FHaze.7 mph67%29.65 "Hg3 mi
9:00 AM91 °FHaze.5 mph71%29.65 "Hg3 mi
8:30 AM91 °FScattered clouds.No wind71%29.65 "Hg2 mi
8:00 AM90 °FScattered clouds.5 mph75%29.65 "Hg2 mi
7:30 AM86 °FFog.5 mph79%29.65 "Hg2 mi
7:00 AM86 °FFog.5 mph79%29.65 "Hg2 mi
6:30 AM86 °FPassing clouds.5 mph79%29.62 "Hg2 mi
5:30 AM86 °FPassing clouds.7 mph79%29.62 "Hg2 mi
4:30 AM86 °FPassing clouds.7 mph75%29.62 "Hg2 mi
3:30 AM86 °FHaze.9 mph75%29.59 "Hg2 mi
2:30 AM88 °FClear.7 mph79%29.59 "Hg2 mi
2:00 AM88 °FFog.7 mph79%29.59 "Hg2 mi
Weather by CustomWeather, © 2014

See weather overviewHow to use our weather pages